Simultaneous Nadir Overpasses (SNOs) Predictions

Prediction of SNOs between AQUA and METOP-B Satellite Orbit:

Table of predicted SNOs for the next 14.0 days since TLE Epoch: 2/27/2021
Index Date (AQUA) Time (AQUA) Lat,Lon (AQUA) SZA (AQUA ) Date (METOP-B) Time (METOP-B) Lat,Lon (METOP-B) SZA (METOP-B ) Distance(km) Time Diff (sec)
1 02/27/2021 15:43:11 73.77, -61.46 81.96 02/27/2021 15:42:28 73.76, -61.55 81.97 2.93 43
2 02/27/2021 16:32:39 -73.88, 105.92 97.93 02/27/2021 16:33:08 -73.87, 106.04 97.95 3.69 29
3 03/02/2021 11:17:25 73.77, 4.98 80.88 03/02/2021 11:16:48 73.78, 4.89 80.91 3.14 37
4 03/02/2021 12:06:52 -73.83, 172.48 99.06 03/02/2021 12:07:29 -73.84, 172.37 99.06 3.66 37
5 03/05/2021 06:51:40 73.77, 71.41 79.80 03/05/2021 06:51:09 73.79, 71.33 79.83 3.34 31
6 03/05/2021 07:41:07 -73.84,-121.09 100.15 03/05/2021 07:41:50 -73.85,-121.19 100.13 3.68 43
7 03/08/2021 02:25:55 73.78, 137.83 78.71 03/08/2021 02:25:30 73.80, 137.77 78.74 2.96 25
8 03/08/2021 03:15:22 -73.85, -54.67 101.24 03/08/2021 03:16:11 -73.86, -54.76 101.23 3.23 49
9 03/10/2021 21:10:31 -73.24, 37.78 102.97 03/10/2021 21:09:23 -73.19, 35.46 102.90 74.81 68
10 03/10/2021 22:00:09 73.80,-155.76 77.62 03/10/2021 21:59:50 73.81,-155.80 77.64 1.85 19
11 03/10/2021 22:49:36 -73.86, 11.74 102.33 03/10/2021 22:50:31 -73.87, 11.67 102.33 2.24 55



Historial Predications of SNOs between AQUA and METOP-B
